Torna al catalogo

STARLINK-1582

AttivoComunicazioniVLEO
NORAD 46043·PAYLOAD·🇺🇸 United States

Lanciato Aug 7, 2020 da Cape Canaveral Space Force Station

Loading…

Prossimi Passaggi (prossime 24 ore)

TLE

AggiornatoSource: CelesTrak SupGP

Epoca: Sep 14, 2026, 20:07 UTC

1 46043C 20055S   26257.83868056 -.00030346  00000+0 -97600-3 0  2574
2 46043  53.1577 326.4633 0001183  72.2830 338.9417 15.31712496    14

Traccia STARLINK-1582 in tempo reale con AllMySat

Download on the App Store